| time (UTC) | temp F | wind direction | speed MPH | gust MPH | rain 1hr in | rain 24hr in | rain mn in | humidity % | barometer mb |
| 20260505225255 | 54 | 0.0 | 0.0 | 0.00 | 0.08 | 0.00 | 94 | ||
| 20260505224234 | 55 | 0.0 | 0.0 | 0.00 | 0.08 | 0.00 | 92 | ||
| 20260505223255 | 55 | 0.0 | 0.0 | 0.00 | 0.08 | 0.00 | 93 | ||
| 20260505222231 | 56 | 0.0 | 0.0 | 0.00 | 0.08 | 0.00 | 93 | ||
| 20260505221255 | 56 | 0.0 | 0.0 | 0.00 | 0.08 | 0.00 | 93 | ||
| 20260505220231 | 56 | 0.0 | 0.0 | 0.00 | 0.08 | 0.00 | 92 | ||
| 20260505215257 | 56 | 0.0 | 0.0 | 0.00 | 0.08 | 0.08 | 92 | ||
| 20260505214231 | 56 | 0.0 | 0.0 | 0.00 | 0.08 | 0.08 | 92 | ||
| 20260505213258 | 57 | 0.0 | 0.0 | 0.00 | 0.08 | 0.08 | 92 | ||
| 20260505212319 | 57 | 0.0 | 0.0 | 0.00 | 0.08 | 0.08 | 92 | ||
| 20260505211255 | 57 | 0.0 | 0.0 | 0.00 | 0.08 | 0.08 | 92 | ||
| 20260505210234 | 57 | 0.0 | 0.0 | 0.02 | 0.08 | 0.08 | 92 | ||
| 20260505205256 | 57 | 0.0 | 0.0 | 0.04 | 0.08 | 0.08 | 91 | ||
| 20260505204232 | 57 | 0.0 | 0.0 | 0.04 | 0.08 | 0.08 | 91 | ||
| 20260505203255 | 58 | 0.0 | 0.0 | 0.04 | 0.08 | 0.08 | 91 | ||
| 20260505202232 | 58 | 0.0 | 0.0 | 0.04 | 0.08 | 0.08 | 90 | ||
| 20260505201255 | 58 | 0.0 | 0.0 | 0.05 | 0.08 | 0.08 | 90 | ||
| 20260505200232 | 58 | 0.0 | 0.0 | 0.02 | 0.06 | 0.06 | 89 | ||
| 20260505195256 | 58 | 0.0 | 0.0 | 0.01 | 0.05 | 0.05 | 89 | ||
| 20260505194231 | 58 | 0.0 | 0.0 | 0.01 | 0.05 | 0.05 | 88 | ||
| 20260505193257 | 58 | 0.0 | 0.0 | 0.01 | 0.05 | 0.05 | 87 | ||
| 20260505192234 | 58 | 0.0 | 0.0 | 0.01 | 0.05 | 0.05 | 85 | ||
| 20260505191255 | 58 | 0.0 | 0.0 | 0.00 | 0.04 | 0.04 | 85 | ||
| 20260505190233 | 58 | 0.0 | 0.0 | 0.00 | 0.04 | 0.04 | 84 | ||
| 20260505185255 | 59 | 0.0 | 0.0 | 0.00 | 0.04 | 0.04 | 83 | ||
| 20260505184232 | 59 | 0.0 | 0.0 | 0.00 | 0.04 | 0.04 | 83 | ||
| 20260505183256 | 59 | 0.0 | 0.0 | 0.00 | 0.04 | 0.04 | 82 | ||
| 20260505182232 | 60 | 0.0 | 0.0 | 0.00 | 0.04 | 0.04 | 82 | ||
| 20260505181256 | 60 | 0.0 | 0.0 | 0.00 | 0.04 | 0.04 | 81 | ||
| 20260505180233 | 60 | 0.0 | 0.0 | 0.00 | 0.04 | 0.04 | 80 | ||
| 20260505175256 | 60 | 0.0 | 0.0 | 0.00 | 0.04 | 0.04 | 78 | ||
| 20260505174233 | 61 | 0.0 | 0.0 | 0.00 | 0.04 | 0.04 | 78 | ||
| 20260505173256 | 61 | 0.0 | 0.0 | 0.00 | 0.04 | 0.04 | 77 | ||
| 20260505172232 | 61 | 0.0 | 0.0 | 0.00 | 0.04 | 0.04 | 78 | ||
| 20260505171347 | 62 | 0.0 | 0.0 | 0.00 | 0.04 | 0.04 | 78 | ||
| 20260505170232 | 62 | 0.0 | 0.0 | 0.00 | 0.04 | 0.04 | 78 | ||
| 20260505165300 | 62 | 0.0 | 0.0 | 0.00 | 0.04 | 0.04 | 77 | ||
| 20260505164320 | 62 | 0.0 | 1.0 | 0.00 | 0.04 | 0.04 | 78 | ||
| 20260505163256 | 62 | 0.0 | 0.0 | 0.01 | 0.04 | 0.04 | 80 | ||
| 20260505162233 | 61 | 0.0 | 0.0 | 0.01 | 0.04 | 0.04 | 81 | ||
| 20260505161256 | 60 | 0.0 | 0.0 | 0.01 | 0.04 | 0.04 | 82 | ||
| 20260505160232 | 60 | 0.0 | 0.0 | 0.01 | 0.04 | 0.04 | 83 | ||
| 20260505153255 | 60 | 0.0 | 0.0 | 0.02 | 0.02 | 0.02 | 83 | ||
| 20260505152232 | 60 | 0.0 | 0.0 | 0.02 | 0.02 | 0.02 | 83 | ||
| 20260505151344 | 60 | 0.0 | 0.0 | 0.02 | 0.02 | 0.02 | 83 | ||
| 20260505150232 | 60 | 0.0 | 0.0 | 0.02 | 0.02 | 0.02 | 82 | ||
| 20260505140232 | 63 | 0.0 | 2.0 | 0.00 | 0.00 | 0.00 | 73 | ||
| 20260505130234 | 67 | 0.0 | 2.0 | 0.00 | 0.00 | 0.00 | 57 | ||
| 20260505124232 | 68 | 0.0 | 1.0 | 0.00 | 0.00 | 0.00 | 57 | ||
| 20260505123256 | 68 | 0.0 | 1.0 | 0.00 | 0.00 | 0.00 | 55 | ||
| 20260505122232 | 69 | 0.0 | 2.0 | 0.00 | 0.00 | 0.00 | 54 | ||
| 20260505121256 | 69 | 0.0 | 1.0 | 0.00 | 0.00 | 0.00 | 53 | ||
| 20260505120233 | 71 | 0.0 | 2.0 | 0.00 | 0.00 | 0.00 | 51 | ||
| 20260505115257 | 71 | 0.0 | 0.0 | 0.00 | 0.00 | 0.00 | 51 | ||
| 20260505114232 | 71 | 0.0 | 0.0 | 0.00 | 0.00 | 0.00 | 51 | ||
| 20260505113255 | 71 | 0.0 | 2.0 | 0.00 | 0.00 | 0.00 | 51 | ||
| 20260505112232 | 70 | 307 | 3.0 | 7.0 | 0.00 | 0.00 | 0.00 | 52 | |
| 20260505111256 | 71 | 330 | 3.0 | 6.0 | 0.00 | 0.00 | 0.00 | 51 | |
| 20260505110232 | 71 | 351 | 4.0 | 8.0 | 0.00 | 0.00 | 0.00 | 52 | |
| 20260505101256 | 70 | 0.0 | 1.0 | 0.00 | 0.00 | 0.00 | 53 | ||
| 20260505100232 | 70 | 0.0 | 1.0 | 0.00 | 0.00 | 0.00 | 54 | ||
| 20260505095256 | 70 | 0.0 | 1.0 | 0.00 | 0.00 | 0.00 | 54 | ||
| 20260505094232 | 71 | 0.0 | 0.0 | 0.00 | 0.00 | 0.00 | 54 | ||
| 20260505093256 | 71 | 0.0 | 0.0 | 0.00 | 0.00 | 0.00 | 57 | ||
| 20260505092232 | 70 | 0.0 | 0.0 | 0.00 | 0.00 | 0.00 | 59 | ||
| 20260505091256 | 69 | 0.0 | 1.0 | 0.00 | 0.00 | 0.00 | 59 | ||
| 20260505090233 | 67 | 0.0 | 0.0 | 0.00 | 0.00 | 0.00 | 60 | ||
| 20260505085344 | 67 | 0.0 | 0.0 | 0.00 | 0.00 | 0.00 | 60 | ||
| 20260505084232 | 67 | 0.0 | 1.0 | 0.00 | 0.00 | 0.00 | 60 | ||
| 20260505083257 | 67 | 0.0 | 1.0 | 0.00 | 0.00 | 0.00 | 60 | ||
| 20260505082320 | 67 | 0.0 | 2.0 | 0.00 | 0.00 | 0.00 | 62 | ||
| 20260505081256 | 66 | 0.0 | 1.0 | 0.00 | 0.00 | 0.00 | 62 | ||
| 20260505080320 | 66 | 0.0 | 1.0 | 0.00 | 0.00 | 0.00 | 62 | ||
| 20260505075257 | 65 | 0.0 | 0.0 | 0.00 | 0.00 | 0.00 | 61 | ||
| 20260505074232 | 66 | 0.0 | 1.0 | 0.00 | 0.00 | 0.00 | 60 | ||
| 20260505073256 | 67 | 0.0 | 0.0 | 0.00 | 0.00 | 0.00 | 62 | ||
| 20260505072233 | 65 | 0.0 | 0.0 | 0.00 | 0.00 | 0.00 | 65 | ||
| 20260505071256 | 64 | 0.0 | 0.0 | 0.00 | 0.00 | 0.00 | 68 | ||
| 20260505070234 | 62 | 0.0 | 0.0 | 0.00 | 0.00 | 0.00 | 73 | ||
| 20260505065256 | 61 | 0.0 | 0.0 | 0.00 | 0.00 | 0.00 | 75 | ||
| 20260505064232 | 60 | 0.0 | 1.0 | 0.00 | 0.00 | 0.00 | 74 | ||
| 20260505063257 | 60 | 0.0 | 0.0 | 0.00 | 0.00 | 0.00 | 74 | ||
| 20260505062232 | 60 | 0.0 | 0.0 | 0.00 | 0.00 | 0.00 | 75 | ||
| 20260505061257 | 60 | 0.0 | 0.0 | 0.00 | 0.00 | 0.00 | 76 | ||
| 20260505060238 | 59 | 0.0 | 0.0 | 0.00 | 0.00 | 0.00 | 77 | ||
| 20260505055256 | 59 | 0.0 | 1.0 | 0.00 | 0.00 | 0.00 | 79 | ||
| 20260505054234 | 58 | 0.0 | 0.0 | 0.00 | 0.00 | 0.00 | 80 | ||
| 20260505053258 | 58 | 0.0 | 0.0 | 0.00 | 0.00 | 0.00 | 80 | ||
| 20260505052232 | 57 | 0.0 | 0.0 | 0.00 | 0.00 | 0.00 | 81 | ||
| 20260505051256 | 57 | 0.0 | 0.0 | 0.00 | 0.00 | 0.00 | 82 | ||
| 20260505050233 | 56 | 0.0 | 0.0 | 0.00 | 0.00 | 0.00 | 82 | ||
| 20260505041257 | 56 | 0.0 | 0.0 | 0.00 | 0.00 | 0.00 | 81 | ||
| 20260505040234 | 56 | 0.0 | 0.0 | 0.00 | 0.00 | 0.00 | 81 | ||
| 20260505035256 | 56 | 0.0 | 0.0 | 0.00 | 0.00 | 0.00 | 81 | ||
| 20260505034232 | 56 | 0.0 | 0.0 | 0.00 | 0.00 | 0.00 | 81 | ||
| 20260505033256 | 56 | 0.0 | 1.0 | 0.00 | 0.00 | 0.00 | 81 | ||
| 20260505032232 | 56 | 0.0 | 0.0 | 0.00 | 0.00 | 0.00 | 80 | ||
| 20260505031257 | 57 | 0.0 | 0.0 | 0.00 | 0.00 | 0.00 | 80 | ||
| 20260505030232 | 57 | 0.0 | 0.0 | 0.00 | 0.00 | 0.00 | 80 | ||
| 20260505025257 | 57 | 0.0 | 0.0 | 0.00 | 0.00 | 0.00 | 79 | ||
| 20260505024232 | 57 | 0.0 | 0.0 | 0.00 | 0.00 | 0.00 | 79 | ||
| 20260505023344 | 57 | 0.0 | 0.0 | 0.00 | 0.00 | 0.00 | 78 | ||
| 20260505022232 | 57 | 0.0 | 0.0 | 0.00 | 0.00 | 0.00 | 78 | ||
| 20260505021256 | 57 | 0.0 | 0.0 | 0.00 | 0.00 | 0.00 | 77 | ||
| 20260505020320 | 57 | 0.0 | 0.0 | 0.00 | 0.00 | 0.00 | 77 | ||
| 20260505015344 | 57 | 0.0 | 0.0 | 0.00 | 0.00 | 0.00 | 77 | ||
| 20260505014233 | 58 | 0.0 | 0.0 | 0.00 | 0.00 | 0.00 | 77 | ||
| 20260505013258 | 58 | 0.0 | 0.0 | 0.00 | 0.00 | 0.00 | 76 | ||
| 20260505012233 | 58 | 0.0 | 0.0 | 0.00 | 0.00 | 0.00 | 77 | ||
| 20260505011259 | 58 | 0.0 | 0.0 | 0.00 | 0.00 | 0.00 | 77 | ||
| 20260505010233 | 58 | 0.0 | 1.0 | 0.00 | 0.00 | 0.00 | 77 | ||
| 20260505005257 | 58 | 0.0 | 0.0 | 0.00 | 0.00 | 0.00 | 76 | ||
| 20260505004232 | 58 | 0.0 | 0.0 | 0.00 | 0.00 | 0.00 | 75 | ||
| 20260505003256 | 59 | 0.0 | 0.0 | 0.00 | 0.00 | 0.00 | 75 | ||
| 20260505002233 | 58 | 0.0 | 0.0 | 0.00 | 0.00 | 0.00 | 75 | ||
| 20260505001256 | 59 | 0.0 | 0.0 | 0.00 | 0.00 | 0.00 | 75 | ||
| 20260505000233 | 59 | 0.0 | 0.0 | 0.00 | 0.00 | 0.00 | 74 | ||
| 20260504235257 | 59 | 0.0 | 0.0 | 0.00 | 0.00 | 0.00 | 73 | ||
| 20260504234232 | 59 | 0.0 | 0.0 | 0.00 | 0.00 | 0.00 | 73 | ||
| 20260504233257 | 59 | 0.0 | 0.0 | 0.00 | 0.00 | 0.00 | 73 | ||
| 20260504232234 | 59 | 0.0 | 0.0 | 0.00 | 0.00 | 0.00 | 73 | ||
| 20260504231257 | 59 | 0.0 | 0.0 | 0.00 | 0.00 | 0.00 | 73 | ||
| 20260504230232 | 59 | 0.0 | 0.0 | 0.00 | 0.00 | 0.00 | 72 |